DateTimeUTC,F1_A11,F1_S11,BsB_S11,BsG_S11,BsR_S11,BbsB_S11,BbsG_S11,BbsR_S11,BaB_A11,BaG_A11,BaR_A11,Tu_S11,T_S11,Uu_S11,U_S11,P_S11,T1_A11
2021-07-10T14:00:00Z,00000200,20000000,,,,,,,-000.16,0000.17,-000.22,18.6,25.0,07.4,05.0,0675.7,31.0
2021-07-10T14:01:00Z,00000200,20000000,,,,,,,-000.02,-000.16,0000.13,18.6,25.0,07.4,05.0,0675.7,31.0
2021-07-10T14:02:00Z,00000200,20000000,,,,,,,0000.07,0000.06,0000.27,18.6,25.0,07.4,05.0,0675.7,31.0
2021-07-10T14:03:00Z,00000200,60000000,,,,,,,-000.01,0000.40,0000.03,18.6,25.0,07.4,05.0,0675.7,31.0
2021-07-10T14:04:00Z,00000200,40000000,0000.35,-000.04,0000.26,0000.46,-000.01,0000.18,0000.18,-000.05,-000.02,18.7,24.9,07.5,05.2,0676.7,31.0
2021-07-10T14:05:00Z,00000200,00000000,0000.75,0000.27,0000.51,0000.30,-000.27,-000.07,0000.28,0000.07,-000.26,18.7,24.9,07.6,05.2,0676.7,31.0
2021-07-10T14:06:00Z,00000200,00000000,0000.60,0000.35,0000.15,0000.24,-000.19,-000.12,-000.17,-000.13,0000.37,18.8,24.9,07.6,05.3,0676.7,31.0
2021-07-10T14:07:00Z,00000200,00000000,0000.82,0000.27,0000.24,0000.70,-000.22,0000.05,0000.03,-000.14,-000.12,18.8,24.9,07.6,05.3,0676.7,31.0
2021-07-10T14:08:00Z,00000200,00000000,0000.93,0000.57,0000.14,0000.58,-000.20,0000.09,0000.27,0000.34,0000.24,18.8,24.9,07.6,05.3,0676.7,31.0
2021-07-10T14:09:00Z,00000200,00000000,0000.58,0000.32,-000.14,0000.19,-000.07,0000.01,-000.15,-000.01,0000.10,18.8,24.9,07.8,05.3,0676.7,31.0
2021-07-10T14:10:00Z,00000200,00000000,0000.60,0000.62,0000.03,0000.56,0000.11,-000.27,0000.06,0000.20,0000.03,18.8,24.9,07.8,05.3,0676.7,31.0
2021-07-10T14:11:00Z,00000200,00000000,0001.19,0000.55,0000.15,-000.10,-000.21,0000.04,0000.26,0000.07,-000.13,18.8,24.9,07.7,05.3,0676.7,31.0
2021-07-10T14:12:00Z,00000200,00000000,0000.78,0000.42,0000.05,0000.01,-000.06,0000.25,-000.25,0000.05,0000.06,18.8,24.9,07.6,05.3,0676.7,31.0
2021-07-10T14:13:00Z,00000200,00000000,0001.45,0000.17,0000.01,0000.37,0000.01,-000.06,0000.24,0000.12,0000.45,18.8,24.9,07.7,05.3,0676.8,31.0
2021-07-10T14:14:00Z,00000200,00000000,0001.06,0000.50,0000.00,0000.27,-000.01,0000.06,0000.44,0000.06,-000.18,18.8,24.9,07.7,05.3,0676.7,31.0
2021-07-10T14:15:00Z,00000200,00000000,0000.99,0000.15,0000.03,-000.29,-000.24,0000.12,-000.13,0000.06,0000.31,18.8,24.9,07.7,05.3,0676.8,31.0
2021-07-10T14:16:00Z,00000200,00000000,0000.35,0000.18,-000.10,0000.32,-000.37,-000.12,0000.08,-000.29,-000.22,18.8,24.8,07.7,05.3,0676.7,31.0
2021-07-10T14:17:00Z,00000200,00000000,0000.44,0000.27,0000.07,0000.77,-000.16,-000.02,0000.02,0000.29,0000.10,18.8,24.9,07.7,05.3,0676.7,31.0
2021-07-10T14:18:00Z,00000200,00000000,0000.26,0000.39,0000.20,0000.06,-000.32,0000.09,0000.11,-000.05,-000.02,18.8,24.9,07.7,05.3,0676.7,31.0
2021-07-10T14:19:00Z,00000200,00000000,0000.59,0000.22,0000.04,0000.05,-000.03,0000.19,0000.11,0000.44,0000.34,18.8,24.9,07.7,05.4,0676.7,31.0
2021-07-10T14:20:00Z,00000200,00000000,0000.67,0000.44,-000.30,-000.08,-000.41,0000.18,-000.02,-000.12,-000.25,18.8,24.9,07.7,05.4,0676.7,31.0
2021-07-10T14:21:00Z,00000200,00000000,0000.69,0000.53,0000.22,0000.19,-000.27,0000.44,0000.38,0000.20,0000.02,18.8,24.9,07.9,05.5,0676.8,31.0
2021-07-10T14:22:00Z,00000200,00000000,0000.86,0000.36,0000.19,-000.00,-000.04,0000.35,-000.31,-000.13,0000.17,18.9,24.9,07.8,05.4,0676.8,31.0
2021-07-10T14:23:00Z,00000200,00000000,0000.95,0000.04,0000.21,-000.37,-000.09,0000.09,0000.31,0000.16,-000.02,18.9,24.9,07.7,05.4,0676.8,31.0
2021-07-10T14:24:00Z,00000200,00000000,0000.61,0000.34,0000.17,0000.36,-000.29,0000.18,0000.21,0000.39,0000.20,18.9,24.9,07.9,05.5,0676.8,31.0
2021-07-10T14:25:00Z,00000200,00000000,0000.50,0000.33,0000.29,0000.39,-000.14,0000.56,0000.02,-000.13,0000.11,18.9,24.9,07.8,05.4,0676.7,31.0
2021-07-10T14:26:00Z,00000200,00000000,0000.31,0000.17,0000.33,-000.02,-000.50,0000.14,-000.05,-000.04,-000.04,18.9,24.9,07.8,05.4,0676.8,31.0
2021-07-10T14:27:00Z,00000200,00000000,0000.56,0000.22,0000.36,0000.13,-000.17,0000.41,0000.02,-000.05,-000.02,18.9,24.9,07.7,05.4,0676.7,31.0
2021-07-10T14:28:00Z,00000200,00000000,0000.49,0000.41,0000.48,0000.02,-000.15,0000.18,-000.02,0000.41,0000.33,18.9,24.9,07.8,05.4,0676.7,31.0
2021-07-10T14:29:00Z,00000200,00000000,0000.83,0000.47,0000.11,0000.54,-000.10,0000.15,0000.18,-000.16,-000.32,18.9,24.9,07.7,05.3,0676.8,31.0
2021-07-10T14:30:00Z,00000200,00000000,0000.29,0000.71,-000.01,0000.61,-000.12,-000.05,0000.07,0000.08,0000.05,18.9,24.9,07.8,05.4,0676.8,31.0
2021-07-10T14:31:00Z,00000200,00000000,-000.01,0000.53,0000.20,0000.47,0000.12,-000.15,0000.17,0000.17,0000.30,18.9,24.9,07.8,05.4,0676.8,31.0
2021-07-10T14:32:00Z,00000200,00000000,0000.04,0000.02,0000.08,-000.12,0000.13,0000.32,0000.05,-000.10,-000.01,18.9,24.9,07.9,05.5,0676.8,31.0
2021-07-10T14:33:00Z,00000200,00000000,0000.07,0000.39,0000.34,0000.07,-000.22,-000.00,0000.28,0000.23,0000.40,18.9,24.9,07.9,05.5,0676.8,31.0
2021-07-10T14:34:00Z,00000200,00000000,0000.93,0000.49,0000.27,0000.40,0000.03,-000.28,-000.10,-000.13,-000.13,18.9,24.9,08.0,05.5,0676.8,31.0
2021-07-10T14:35:00Z,00000200,00000000,0000.45,0000.51,0000.07,-000.24,-000.15,0000.30,-000.09,0000.36,0000.25,18.9,24.9,07.9,05.5,0676.8,31.0
2021-07-10T14:36:00Z,00000200,00000000,0000.69,0000.37,0000.06,-000.19,-000.07,-000.09,0000.21,-000.16,-000.15,18.9,24.9,07.9,05.5,0676.8,31.0
2021-07-10T14:37:00Z,00000200,00000000,0000.80,0000.05,-000.10,0000.05,-000.13,-000.07,0000.39,0000.20,0000.24,18.9,24.9,08.0,05.6,0676.9,31.0
2021-07-10T14:38:00Z,00000200,00000000,0000.30,0000.45,0000.03,-000.28,-000.17,0000.01,-000.14,-000.05,-000.17,18.9,24.9,08.0,05.5,0676.8,31.0
2021-07-10T14:39:00Z,00000200,00000000,0000.85,0000.25,0000.05,0000.35,-000.27,0000.29,0000.08,0000.21,-000.09,18.9,24.9,07.9,05.5,0676.9,31.0
2021-07-10T14:40:00Z,00000200,00000000,0000.94,0000.44,-000.32,-000.11,-000.29,0000.07,0000.08,0000.04,0000.22,18.9,24.9,08.1,05.6,0676.8,31.0
2021-07-10T14:41:00Z,00000200,00000000,0000.64,0000.07,-000.17,0000.11,-000.06,0000.02,0000.05,0000.17,-000.21,18.9,24.9,08.0,05.5,0676.8,31.0
2021-07-10T14:42:00Z,00000200,00000000,0000.35,0000.24,0000.32,0000.28,0000.02,0000.10,0000.19,0000.09,0000.25,18.9,24.9,08.0,05.5,0676.9,31.0
2021-07-10T14:43:00Z,00000200,00000000,0000.60,0000.35,0000.21,0000.02,-000.20,-000.02,0000.13,-000.04,0000.25,18.9,24.9,08.1,05.6,0676.8,31.0
2021-07-10T14:44:00Z,00000200,00000000,0000.82,0000.37,0000.28,-000.22,-000.16,0000.13,-000.04,0000.11,-000.13,18.9,24.9,08.0,05.5,0676.8,31.0
2021-07-10T14:45:00Z,00000200,00000000,0001.23,0000.50,0000.15,-000.36,-000.22,0000.18,-000.11,0000.13,-000.05,18.9,24.9,07.9,05.5,0676.8,31.0
2021-07-10T14:46:00Z,00000200,00000000,0001.11,0000.29,-000.11,0000.30,-000.20,-000.13,0000.52,0000.14,0000.10,18.9,25.0,08.0,05.6,0676.9,31.0
2021-07-10T14:47:00Z,00000200,00000000,0000.28,0000.30,-000.01,0000.94,-000.23,-000.08,-000.13,0000.01,0000.31,18.9,25.0,08.2,05.7,0676.9,31.0
2021-07-10T14:48:00Z,00000200,00000000,0000.17,0000.23,-000.18,-000.34,0000.11,0000.36,-000.01,0000.11,-000.06,19.0,25.0,08.2,05.7,0676.9,31.0
2021-07-10T14:49:00Z,00000200,00000000,0000.52,0000.12,-000.00,0000.56,-000.33,0000.30,0000.08,-000.07,0000.18,19.0,25.0,08.1,05.6,0676.9,31.0
2021-07-10T14:50:00Z,00000200,00000000,0000.67,-000.09,0000.26,-000.04,-000.08,0000.22,0000.09,-000.18,-000.14,19.0,25.0,08.1,05.6,0676.9,31.0
2021-07-10T14:51:00Z,00000200,00000000,0000.37,0000.17,0000.03,-000.18,-000.17,-000.09,0000.23,0000.14,-000.01,19.0,25.0,08.1,05.6,0676.9,31.0
2021-07-10T14:52:00Z,00000200,00000000,0001.16,0000.37,0000.08,0000.30,-000.08,0000.08,-000.11,0000.16,-000.08,19.0,25.0,08.0,05.5,0676.9,31.0
2021-07-10T14:53:00Z,00000200,00000000,0000.70,0000.46,-000.14,-000.13,-000.16,0000.25,-000.07,0000.21,0000.09,19.0,25.0,08.1,05.6,0676.8,31.0
2021-07-10T14:54:00Z,00000200,00000000,0000.76,0000.17,0000.16,0000.57,-000.10,-000.02,0000.33,0000.08,0000.44,19.0,25.0,08.0,05.6,0676.9,31.0
2021-07-10T14:55:00Z,00000200,00000000,0000.29,0000.50,0000.15,0000.45,0000.00,0000.04,0000.28,0000.23,-000.08,19.0,25.0,08.1,05.6,0676.8,31.0
2021-07-10T14:56:00Z,00000200,00000000,0000.68,0000.63,-000.20,-000.05,-000.13,0000.04,-000.12,0000.19,0000.09,19.0,25.0,08.1,05.6,0676.9,31.0
2021-07-10T14:57:00Z,00000200,40000000,,,,,,,0000.06,-000.44,-000.09,19.0,25.0,08.8,06.1,0676.8,31.0
2021-07-10T14:58:00Z,00000200,60000000,,,,,,,0000.01,0000.39,0000.07,18.8,25.1,08.1,05.5,0675.9,31.0
2021-07-10T14:59:00Z,00000200,20000000,,,,,,,-000.17,-000.26,-000.11,18.8,25.2,08.1,05.5,0675.9,31.0
